sat.trackr.live / text

‹ back to catalog

STARLINK-35270

NORAD 65882 · 2025-224A

PAYLOAD ACTIVE UNKNOWN

§ Identity

Operator
Country
US
Launch date
2025-10-07
Launch site
AFETR
Launch vehicle
Mass (kg)
RCS (m²)

Purposes: comms

External: N2YO · Heavens-Above · Gunter

§ Orbital elements

Epoch: 2026-05-24T22:59:19.649184Z

Period
93.85 min
Inclination
53.1605°
Eccentricity
0.0001074
Mean motion
15.34410577 rev/d
Perigee alt
461.9 km
Apogee alt
463.4 km
Semi-major
6,840.8 km
B*
7.8836e-4
RAAN
16.2260°
Arg perigee
79.3309°
Mean anomaly
280.7814°
Rev number
3,651

§ Raw data

STARLINK-352701 65882U 25224A   26144.95786631  .00026362  00000+0  78836-3 0  99992 65882  53.1605  16.2260 0001074  79.3309 280.7814 15.34410577 36513

JSON: /api/v1/satellites/65882 · /tle

For live sub-satellite position, see the globe view (requires WebGL).

§ Visibility from observer

Set your observer location to see the next 7 days of passes ≥ 10°. The values pass through the URL so the page stays shareable.

No JS? Fill the form by hand. The geolocation button needs JavaScript.